GW2953 Weather Reports


Display with metric or nautical units.
time (UTC)temp
F
wind
direction
speed
MPH
gust
MPH
rain 1hr
in
rain 24hr
in
rain mn
in
humidity
%
barometer
mb
20260901232953 64 184 2.0 10.0 0.00 0.00 0.00 61 1014.2
20260901232448 63 279 5.0 11.0 0.00 0.00 0.00 64 1014.2
20260901231943 63 239 9.0 14.0 0.00 0.00 0.00 64 1014.4
20260901231439 64 256 6.0 11.0 0.00 0.00 0.00 63 1014.4
20260901230936 64 262 4.0 9.0 0.00 0.00 0.00 63 1014.4
20260901230436 64 180 4.0 7.0 0.00 0.00 0.00 63 1014.5
20260901225931 62 176 4.0 10.0 0.00 0.00 0.00 66 1014.4
20260901225430 62 176 4.0 8.0 0.00 0.00 0.00 67 1014.7
20260901224926 62 247 4.0 7.0 0.00 0.00 0.00 68 1015.0
20260901224421 61 237 4.0 7.0 0.00 0.00 0.00 69 1014.8
20260901223918 61 207 11.0 11.0 0.00 0.00 0.00 68 1015.0
20260901223413 61 193 2.0 7.0 0.00 0.00 0.00 69 1014.8
20260901222908 61 175 6.0 13.0 0.00 0.00 0.00 69 1014.8
20260901222405 61 203 5.0 8.0 0.00 0.00 0.00 69 1014.4
20260901221900 61 209 6.0 9.0 0.00 0.00 0.00 69 1014.8
20260901221356 62 198 2.0 9.0 0.00 0.00 0.00 69 1014.5
20260901220856 61 321 2.0 7.0 0.00 0.00 0.00 69 1014.5
20260901220354 61 157 4.0 6.0 0.00 0.00 0.00 69 1014.8
20260901215854 61 217 5.0 8.0 0.00 0.00 0.00 70 1014.7
20260901215353 62 184 3.0 6.0 0.00 0.00 0.00 68 1014.8
20260901214852 61 218 4.0 7.0 0.00 0.00 0.00 68 1014.8
20260901214351 61 208 3.0 5.0 0.00 0.00 0.00 69 1014.8
20260901213850 61 259 2.0 6.0 0.00 0.00 0.00 69 1014.9
20260901213345 61 200 0.0 5.0 0.00 0.00 0.00 69 1014.7
20260901212840 61 179 5.0 9.0 0.00 0.00 0.00 69 1015.0
20260901212336 60 138 2.0 8.0 0.00 0.00 0.00 70 1015.0
20260901211832 60 166 3.0 4.0 0.00 0.00 0.00 71 1015.0
20260901211327 60 347 1.0 3.0 0.00 0.00 0.00 72 1015.3
20260901210822 60 135 3.0 6.0 0.00 0.00 0.00 72 1015.3
20260901210318 60 182 2.0 5.0 0.00 0.00 0.00 73 1015.3
20260901205814 59 182 3.0 7.0 0.00 0.00 0.00 73 1015.2
20260901205314 60 219 4.0 7.0 0.00 0.00 0.00 73 1015.3
20260901204809 59 273 5.0 10.0 0.00 0.00 0.00 75 1015.4
20260901204306 59 215 6.0 9.0 0.00 0.00 0.00 75 1015.4
20260901203759 59 201 4.0 10.0 0.00 0.00 0.00 75 1015.3
20260901203255 59 284 7.0 10.0 0.00 0.00 0.00 75 1015.4
20260901202753 59 165 4.0 12.0 0.00 0.00 0.00 74 1015.5
20260901202249 59 160 3.0 7.0 0.00 0.00 0.00 74 1015.4
20260901201744 58 241 10.0 13.0 0.00 0.00 0.00 75 1015.5
20260901201238 58 225 5.0 12.0 0.00 0.00 0.00 74 1015.4
20260901200732 59 207 9.0 10.0 0.00 0.00 0.00 74 1015.5
20260901200228 59 189 3.0 12.0 0.00 0.00 0.00 74 1015.4
20260901195726 59 215 4.0 9.0 0.00 0.00 0.00 74 1015.6
20260901195220 59 167 6.0 11.0 0.00 0.00 0.00 73 1015.4
20260901194715 59 280 5.0 7.0 0.00 0.00 0.00 73 1015.5
20260901194204 59 227 4.0 9.0 0.00 0.00 0.00 73 1015.4
20260901193701 58 178 2.0 8.0 0.00 0.00 0.00 74 1015.4
20260901193155 58 342 3.0 11.0 0.00 0.00 0.00 74 1015.6
20260901192655 58 218 8.0 11.0 0.00 0.00 0.00 73 1015.7
20260901192150 58 174 6.0 11.0 0.00 0.00 0.00 73 1015.6
20260901191646 58 262 7.0 15.0 0.00 0.00 0.00 73 1015.6
20260901191142 59 179 7.0 13.0 0.00 0.00 0.00 72 1015.6
20260901190638 59 216 5.0 13.0 0.00 0.00 0.00 71 1015.6
20260901190137 59 219 6.0 13.0 0.00 0.00 0.00 71 1015.5
20260901185636 60 187 5.0 11.0 0.00 0.00 0.00 70 1015.4
20260901185134 59 190 7.0 13.0 0.00 0.00 0.00 70 1015.5
20260901184630 59 166 4.0 10.0 0.00 0.00 0.00 70 1015.4
20260901184125 60 185 4.0 8.0 0.00 0.00 0.00 70 1015.6
20260901183620 59 183 4.0 10.0 0.00 0.00 0.00 70 1015.5
20260901183115 60 188 8.0 11.0 0.00 0.00 0.00 70 1015.3
20260901182612 59 178 6.0 11.0 0.00 0.00 0.00 70 1015.5
20260901182110 59 182 8.0 15.0 0.00 0.00 0.00 70 1015.2
20260901181605 59 280 5.0 16.0 0.00 0.00 0.00 70 1015.3
20260901181104 60 180 10.0 14.0 0.00 0.00 0.00 69 1015.4
20260901180603 60 180 9.0 14.0 0.00 0.00 0.00 69 1015.4
20260901180052 59 206 5.0 15.0 0.00 0.00 0.00 69 1015.4
20260901175545 60 212 9.0 18.0 0.00 0.00 0.00 67 1015.1
20260901175040 60 160 10.0 12.0 0.00 0.00 0.00 66 1014.9
20260901174536 60 204 4.0 12.0 0.00 0.00 0.00 66 1015.0
20260901174032 60 258 4.0 12.0 0.00 0.00 0.00 68 1014.8
20260901173526 60 206 4.0 11.0 0.00 0.00 0.00 68 1014.9
20260901173022 60 212 7.0 11.0 0.00 0.00 0.00 69 1014.9
20260901172517 60 247 3.0 12.0 0.00 0.00 0.00 69 1014.9
20260901172015 60 170 3.0 9.0 0.00 0.00 0.00 69 1014.8
20260901171514 60 283 1.0 7.0 0.00 0.00 0.00 69 1014.7
20260901171014 60 173 3.0 13.0 0.00 0.00 0.00 70 1014.7
20260901170508 59 207 5.0 11.0 0.00 0.00 0.00 71 1014.5
20260901170009 59 177 9.0 13.0 0.00 0.00 0.00 70 1014.5
20260901165502 59 161 6.0 11.0 0.00 0.00 0.00 71 1014.4
20260901164958 59 197 7.0 11.0 0.00 0.00 0.00 72 1014.4
20260901164453 59 183 4.0 13.0 0.00 0.00 0.00 73 1014.4
20260901163948 59 194 8.0 13.0 0.00 0.00 0.00 73 1014.3
20260901163444 59 212 9.0 12.0 0.00 0.00 0.00 72 1014.4
20260901162943 59 222 3.0 9.0 0.00 0.00 0.00 72 1014.4
20260901162438 59 196 3.0 9.0 0.00 0.00 0.00 72 1014.4
20260901161937 59 208 7.0 9.0 0.00 0.00 0.00 72 1014.5
20260901161437 59 177 5.0 9.0 0.00 0.00 0.00 74 1014.4
20260901160932 59 189 3.0 8.0 0.00 0.00 0.00 72 1014.3
20260901160428 59 210 9.0 12.0 0.00 0.00 0.00 72 1014.2
20260901155927 59 236 5.0 8.0 0.00 0.00 0.00 73 1014.2
20260901155421 59 210 4.0 8.0 0.00 0.00 0.00 72 1014.2
20260901154918 59 187 4.0 7.0 0.00 0.00 0.00 72 1014.2
20260901154417 59 201 2.0 9.0 0.00 0.00 0.00 72 1014.1
20260901153912 59 219 5.0 9.0 0.00 0.00 0.00 72 1014.2
20260901153412 59 159 3.0 7.0 0.00 0.00 0.00 73 1014.0
20260901152912 58 227 2.0 9.0 0.00 0.00 0.00 74 1014.0
20260901152407 58 165 7.0 9.0 0.00 0.00 0.00 75 1013.9
20260901151901 58 182 5.0 10.0 0.00 0.00 0.00 75 1013.9
20260901151355 57 162 4.0 9.0 0.00 0.00 0.00 77 1013.7
20260901150855 58 133 4.0 7.0 0.00 0.00 0.00 76 1013.7
20260901150353 57 107 3.0 8.0 0.00 0.00 0.00 78 1014.0
20260901145850 57 158 4.0 9.0 0.00 0.00 0.00 77 1013.8
20260901145350 57 157 3.0 7.0 0.00 0.00 0.00 76 1013.8
20260901144845 57 79 4.0 8.0 0.00 0.00 0.00 76 1013.8
20260901144340 57 81 2.0 8.0 0.00 0.00 0.00 75 1013.8
20260901143837 57 42 4.0 7.0 0.00 0.00 0.00 73 1013.6
20260901143332 56 199 0.0 6.0 0.00 0.00 0.00 75 1013.5
20260901142829 55 136 4.0 10.0 0.00 0.00 0.00 79 1013.3
20260901142327 54 196 1.0 8.0 0.00 0.00 0.00 78 1013.3
20260901141823 54 297 2.0 7.0 0.00 0.00 0.00 78 1013.3
20260901141318 54 173 3.0 9.0 0.00 0.00 0.00 78 1013.1
20260901140817 55 184 10.0 12.0 0.00 0.00 0.00 76 1013.1
20260901140315 56 153 2.0 9.0 0.00 0.00 0.00 74 1013.0
20260901135810 56 210 7.0 11.0 0.00 0.00 0.00 73 1012.9
20260901135311 56 219 2.0 9.0 0.00 0.00 0.00 73 1012.8
20260901134807 55 249 6.0 13.0 0.00 0.00 0.00 74 1012.8
20260901134307 55 248 4.0 6.0 0.00 0.00 0.00 73 1012.6
20260901133801 57 245 5.0 11.0 0.00 0.00 0.00 72 1012.8
20260901133301 56 226 11.0 13.0 0.00 0.00 0.00 73 1012.8
20260901132759 56 273 6.0 7.0 0.00 0.00 0.00 72 1012.6
20260901132254 56 285 3.0 3.0 0.00 0.00 0.00 72 1012.8
20260901131749 56 357 2.0 4.0 0.00 0.00 0.00 72 1012.6
20260901131248 56 126 0.0 7.0 0.00 0.00 0.00 70 1012.8
20260901130743 57 140 6.0 9.0 0.00 0.00 0.00 70 1012.8
20260901130243 58 269 6.0 8.0 0.00 0.00 0.00 68 1012.6
20260901125740 58 244 5.0 15.0 0.00 0.00 0.00 67 1012.9
20260901125235 58 248 9.0 14.0 0.00 0.00 0.00 67 1012.4
20260901124730 58 277 8.0 13.0 0.00 0.00 0.00 66 1012.9
20260901124225 59 207 8.0 13.0 0.00 0.00 0.00 65 1012.8
20260901123724 59 199 6.0 11.0 0.00 0.00 0.00 65 1012.8
20260901123220 59 266 6.0 13.0 0.00 0.00 0.00 65 1012.8
20260901122718 59 232 9.0 15.0 0.00 0.00 0.00 64 1012.8
20260901122213 58 274 6.0 12.0 0.00 0.00 0.00 64 1012.8
20260901121707 58 259 5.0 11.0 0.00 0.00 0.00 65 1012.8
20260901121203 57 298 4.0 8.0 0.00 0.00 0.00 67 1012.9
20260901120702 57 138 4.0 10.0 0.00 0.00 0.00 64 1013.0
20260901120157 58 153 3.0 8.0 0.00 0.00 0.00 63 1013.0
20260901115653 57 32 0.0 6.0 0.00 0.00 0.00 64 1013.0
20260901115149 59 216 4.0 6.0 0.00 0.00 0.00 62 1013.0
20260901114645 57 266 4.0 6.0 0.00 0.00 0.00 67 1012.9
20260901114145 55 267 1.0 3.0 0.00 0.00 0.00 70 1013.1
20260901113643 55 92 1.0 2.0 0.00 0.00 0.00 70 1013.0
20260901113138 55 83 2.0 2.0 0.00 0.00 0.00 70 1012.9
20260901112632 55 79 0.0 4.0 0.00 0.00 0.00 69 1012.9
20260901112127 55 351 3.0 4.0 0.00 0.00 0.00 69 1013.0
20260901111626 56 93 3.0 3.0 0.00 0.00 0.00 69 1012.8
20260901111126 55 304 1.0 4.0 0.00 0.00 0.00 70 1012.8
20260901110621 55 299 1.0 3.0 0.00 0.00 0.00 69 1012.4
20260901110116 54 309 3.0 4.0 0.00 0.00 0.00 70 1012.5
20260901105613 54 138 2.0 5.0 0.00 0.00 0.00 68 1012.5
20260901105106 56 165 4.0 7.0 0.00 0.00 0.00 68 1012.3
20260901104603 55 130 3.0 5.0 0.00 0.00 0.00 68 1012.1
20260901104057 54 284 3.0 4.0 0.00 0.00 0.00 68 1012.3
20260901103556 56 88 3.0 4.0 0.00 0.00 0.00 67 1012.3
20260901103052 55 224 0.0 3.0 0.00 0.00 0.00 67 1012.3
20260901102547 55 335 2.0 3.0 0.00 0.00 0.00 66 1012.4
20260901102042 56 279 0.0 4.0 0.00 0.00 0.00 68 1012.2
20260901101538 55 350 1.0 3.0 0.00 0.00 0.00 64 1012.3
20260901101036 55 68 3.0 4.0 0.00 0.00 0.00 68 1012.2
20260901100531 55 65 3.0 3.0 0.00 0.00 0.00 63 1012.4
20260901100030 55 82 2.0 3.0 0.00 0.00 0.00 63 1012.3
20260901095529 56 315 0.0 3.0 0.00 0.00 0.00 63 1012.4
20260901095026 55 236 2.0 2.0 0.00 0.00 0.00 62 1012.3
20260901094522 56 132 2.0 2.0 0.00 0.00 0.00 61 1012.4
20260901094021 57 79 3.0 3.0 0.00 0.00 0.00 63 1012.3
20260901093516 56 30 0.0 2.0 0.00 0.00 0.00 61 1012.1
20260901093011 56 309 1.0 3.0 0.00 0.00 0.00 60 1012.3
20260901092508 56 36 3.0 4.0 0.00 0.00 0.00 63 1012.2
20260901092003 57 89 2.0 3.0 0.00 0.00 0.00 61 1012.1
20260901091459 57 82 2.0 4.0 0.00 0.00 0.00 58 1012.0
20260901090953 58 297 0.0 1.0 0.00 0.00 0.00 59 1012.0
20260901090452 57 54 0.0 3.0 0.00 0.00 0.00 57 1012.3
20260901085948 57 290 0.0 2.0 0.00 0.00 0.00 57 1012.2
20260901085444 57 37 0.0 3.0 0.00 0.00 0.00 56 1012.3
20260901084940 58 89 2.0 3.0 0.00 0.00 0.00 56 1012.3
20260901084436 58 6 0.0 1.0 0.00 0.00 0.00 57 1012.1
20260901083931 58 28 0.0 2.0 0.00 0.00 0.00 54 1012.3
20260901083431 58 19 1.0 2.0 0.00 0.00 0.00 56 1012.3
20260901082929 58 322 0.0 1.0 0.00 0.00 0.00 56 1012.4
20260901082425 59 216 0.0 2.0 0.00 0.00 0.00 54 1012.2
20260901081919 59 84 0.0 3.0 0.00 0.00 0.00 52 1012.2
20260901081414 59 322 2.0 3.0 0.00 0.00 0.00 57 1012.1
20260901080909 59 0 2.0 3.0 0.00 0.00 0.00 53 1012.2
20260901080404 59 87 1.0 2.0 0.00 0.00 0.00 52 1012.3
20260901075858 58 352 2.0 5.0 0.00 0.00 0.00 52 1012.2
20260901075353 59 83 1.0 3.0 0.00 0.00 0.00 52 1012.2
20260901074847 59 58 2.0 3.0 0.00 0.00 0.00 50 1012.3
20260901074342 59 69 1.0 3.0 0.00 0.00 0.00 49 1012.3
20260901073838 60 56 2.0 3.0 0.00 0.00 0.00 48 1012.2
20260901073334 59 260 2.0 2.0 0.00 0.00 0.00 49 1012.1
20260901072829 59 257 1.0 3.0 0.00 0.00 0.00 49 1012.2
20260901072329 59 62 0.0 2.0 0.00 0.00 0.00 49 1012.2
20260901071824 59 306 1.0 2.0 0.00 0.00 0.00 50 1012.3
20260901071322 59 212 0.0 2.0 0.00 0.00 0.00 49 1012.2
20260901070821 59 255 0.0 1.0 0.00 0.00 0.00 52 1012.1
20260901070317 60 66 2.0 2.0 0.00 0.00 0.00 50 1011.9
20260901065816 60 24 0.0 4.0 0.00 0.00 0.00 49 1011.9
20260901065312 59 42 2.0 4.0 0.00 0.00 0.00 50 1011.9
20260901064808 60 309 3.0 3.0 0.00 0.00 0.00 50 1012.1
20260901064304 60 86 0.0 3.0 0.00 0.00 0.00 46 1012.3
20260901063801 60 119 0.0 2.0 0.00 0.00 0.00 48 1012.1
20260901063257 60 82 1.0 3.0 0.00 0.00 0.00 46 1012.1
20260901062753 61 72 3.0 3.0 0.00 0.00 0.00 45 1012.1
20260901062248 60 304 2.0 3.0 0.00 0.00 0.00 46 1012.0
20260901061744 60 61 1.0 1.0 0.00 0.00 0.00 44 1012.0
20260901061243 61 85 3.0 3.0 0.00 0.00 0.00 44 1012.1
20260901060739 62 9 0.0 2.0 0.00 0.00 0.00 43 1012.0
20260901060234 62 241 0.0 2.0 0.00 0.00 0.00 43 1012.2
20260901055729 61 269 0.0 2.0 0.00 0.00 0.00 44 1012.1
20260901055226 62 74 3.0 4.0 0.00 0.00 0.00 43 1012.4
20260901054723 62 19 3.0 4.0 0.00 0.00 0.00 43 1012.1
20260901054219 62 305 1.0 3.0 0.00 0.00 0.00 42 1012.1
20260901053715 64 32 0.0 2.0 0.00 0.00 0.00 41 1012.0
20260901053210 63 339 2.0 5.0 0.00 0.00 0.00 40 1012.1
20260901052705 63 228 1.0 2.0 0.00 0.00 0.00 41 1012.2
20260901052201 63 329 0.0 3.0 0.00 0.00 0.00 40 1012.0
20260901051659 65 94 3.0 4.0 0.00 0.00 0.00 39 1012.1
20260901051159 64 45 1.0 2.0 0.00 0.00 0.00 39 1012.1
20260901050654 64 113 0.0 2.0 0.00 0.00 0.00 39 1012.0
20260901050149 64 321 1.0 3.0 0.00 0.00 0.00 39 1012.1
20260901045644 65 183 0.0 3.0 0.00 0.00 0.00 39 1012.1
20260901045139 65 312 3.0 4.0 0.00 0.00 0.00 37 1011.9
20260901044635 65 80 1.0 3.0 0.00 0.00 0.00 37 1012.0
20260901044131 65 322 2.0 3.0 0.00 0.00 0.00 37 1011.9
20260901043626 66 246 1.0 5.0 0.00 0.00 0.00 36 1011.6
20260901043122 65 294 3.0 5.0 0.00 0.00 0.00 38 1011.7
20260901042621 66 47 0.0 2.0 0.00 0.00 0.00 37 1011.7
20260901042116 66 148 1.0 2.0 0.00 0.00 0.00 36 1011.5
20260901041612 67 37 1.0 4.0 0.00 0.00 0.00 35 1011.5
20260901041107 68 337 3.0 3.0 0.00 0.00 0.00 34 1011.6
20260901040606 68 141 0.0 5.0 0.00 0.00 0.00 33 1011.3
20260901040101 68 336 1.0 2.0 0.00 0.00 0.00 33 1011.3
20260901035558 68 304 1.0 4.0 0.00 0.00 0.00 32 1011.3
20260901035057 68 265 3.0 8.0 0.00 0.00 0.00 34 1011.1
20260901034551 69 293 2.0 5.0 0.00 0.00 0.00 33 1011.2
20260901034046 69 55 0.0 2.0 0.00 0.00 0.00 32 1011.2
20260901033544 70 263 4.0 8.0 0.00 0.00 0.00 31 1011.2
20260901033039 70 310 3.0 9.0 0.00 0.00 0.00 31 1011.1
20260901032538 69 308 3.0 6.0 0.00 0.00 0.00 31 1011.0
20260901032034 70 298 4.0 7.0 0.00 0.00 0.00 31 1010.9
20260901031529 71 272 5.0 5.0 0.00 0.00 0.00 31 1010.9
20260901031025 72 308 3.0 6.0 0.00 0.00 0.00 29 1010.6
20260901030524 71 312 3.0 6.0 0.00 0.00 0.00 29 1010.8
20260901030019 71 262 7.0 8.0 0.00 0.00 0.00 30 1010.6
20260901025519 72 283 6.0 9.0 0.00 0.00 0.00 32 1010.6
20260901025013 73 251 2.0 4.0 0.00 0.00 0.00 30 1010.8
20260901024508 75 266 1.0 8.0 0.00 0.00 0.00 27 1010.6
20260901024007 75 129 3.0 9.0 0.00 0.00 0.00 25 1010.4
20260901023501 76 110 7.0 10.0 0.00 0.00 0.00 23 1010.6
20260901022955 76 12 2.0 11.0 0.00 0.00 0.00 24 1010.3
20260901022451 77 102 5.0 9.0 0.00 0.00 0.00 24 1010.3
20260901021946 77 102 8.0 12.0 0.00 0.00 0.00 24 1010.3
20260901021442 77 34 3.0 8.0 0.00 0.00 0.00 26 1010.2
20260901020937 77 57 3.0 11.0 0.00 0.00 0.00 28 1010.1
20260901020432 77 38 5.0 9.0 0.00 0.00 0.00 27 1010.0
20260901015931 78 47 8.0 12.0 0.00 0.00 0.00 27 1010.2
20260901015428 78 78 6.0 10.0 0.00 0.00 0.00 27 1010.0
20260901014927 78 47 3.0 8.0 0.00 0.00 0.00 28 1009.9
20260901014424 78 106 4.0 11.0 0.00 0.00 0.00 27 1009.7
20260901013919 78 74 6.0 14.0 0.00 0.00 0.00 28 1010.1
20260901013414 79 47 7.0 11.0 0.00 0.00 0.00 28 1010.0
20260901012910 79 87 11.0 11.0 0.00 0.00 0.00 29 1010.1
20260901012404 79 134 4.0 9.0 0.00 0.00 0.00 29 1010.0
20260901011900 80 60 10.0 11.0 0.00 0.00 0.00 28 1010.1
20260901011356 80 67 4.0 8.0 0.00 0.00 0.00 28 1010.2
20260901010854 80 8 0.0 11.0 0.00 0.00 0.00 29 1010.1
20260901010349 81 32 2.0 8.0 0.00 0.00 0.00 29 1009.8
20260901005848 81 102 4.0 17.0 0.00 0.00 0.00 28 1009.8
20260901005343 82 77 8.0 15.0 0.00 0.00 0.00 27 1010.0
20260901004838 82 52 4.0 7.0 0.00 0.00 0.00 26 1010.1
20260901004332 82 61 6.0 15.0 0.00 0.00 0.00 26 1010.2
20260901003827 82 125 9.0 15.0 0.00 0.00 0.00 26 1009.9
20260901003322 82 136 4.0 7.0 0.00 0.00 0.00 26 1010.1
20260901002821 83 72 4.0 8.0 0.00 0.00 0.00 25 1010.1
20260901002315 84 319 2.0 8.0 0.00 0.00 0.00 26 1010.1
20260901001815 84 202 4.0 12.0 0.00 0.00 0.00 26 1010.1
20260901001312 83 172 2.0 7.0 0.00 0.00 0.00 26 1010.0
20260901000806 83 153 2.0 8.0 0.00 0.00 0.00 27 1010.1
20260901000303 83 70 4.0 9.0 0.00 0.00 0.00 27 1010.3
20260831235759 82 197 1.0 16.0 0.00 0.00 0.00 27 1010.3
20260831235255 83 239 5.0 14.0 0.00 0.00 0.00 27 1010.0
20260831234750 84 225 5.0 13.0 0.00 0.00 0.00 25 1010.2
20260831234249 85 294 2.0 5.0 0.00 0.00 0.00 25 1010.1
20260831233745 84 189 2.0 7.0 0.00 0.00 0.00 25 1010.2